Location: Newark
(26.8229°N, 81.7649°W)
Time: 00:10:44
(UTC+00:00)

N. Korean satellite - Pass Details

Date: 22 January 2020
Orbit: 456 x 505 km, 97.2° (Epoch: 20 February)

Event Time Altitude Azimuth Distance (km) Brightness Sun altitude
Rises 10:14:25 0° 36° (NE) 2,536 10.5 -27.0°
Reaches altitude 10° 10:17:16 10° 62° (ENE) 1,664 9.9 -26.4°
Maximum altitude 10:19:15 14° 96° (E) 1,424 9.8 -25.9°
Drops below altitude 10° 10:21:15 10° 130° (SE) 1,675 10.1 -25.5°
Sets 10:24:07 0° 155° (SSE) 2,562 10.7 -24.9°
